Showing default

GSAT 6A, 43241

Orbit data source: Space-Track

GSAT 6A, 43241 is a payload satellite owned by ISRO (IN) that was launched on Thu, 29 Mar 2018 UTC via a GSLV MK II launch vehicle from the Sirharikota (SRI). Payload-class satellites include a variety of spacecraft equipped with specific instruments for various scientific and technological missions. These include communications satellites like Starlink; space stations such as the ISS; scientific satellites like the Hubble; Earth observation satellites from companies like Planet Labs, Umbra, and HawkEye 360; GPS; miniature CubeSats for education and research; and military/defense satellites.

Loading next visibility...
Identifier
43241, 2018-027A
Orbit
Active
Country
Flag of ININ / IND
Related business
Manufacturer
ISRO
Mission
Non-operational Defense Communications
Bus & Motor
I2K, ISRO LAM
Mass
2,230 kg wet, 976 kg dry
Launch date (UTC)
2018-03-29 (8 years ago)
Launch vehicle
GSLV MK II
Launch site
Sirharikota (SRI)
Object type
Payload
Rocket body
Debris
Shape & HBR
Box + 2 Pan, 4.8 m
Radar Cross Section
8.526 m², Large (>1 m²)

Expand to show TLE details & history
Last TLE update: 8 hours ago

TLE from 8 hours ago
0 GSAT 6A
1 43241U 18027A   25301.56799645 -.00000093  00000-0  00000-0 0  9997
2 43241   2.7366  87.1676 1308150 100.5763 176.8536  1.19316650 33098
Epoch: 2025-10-28T13:37Z
TLE epoch observation values (Epoch: 2025-10-28T13:37:54.893Z)
Latitude
-2.69745°
Longitude
123.69676°
Altitude
36,085.521 km
Speed
2.856 km/s
True Right ascension
00h 21m 18s
True Declination
-2° 41' 41"
Sunlit
Object was in daylight at epoch
Visualization orbit readout
Latitude
Unknown
Longitude
Unknown
Altitude
Unknown
Speed
Unknown
Apparent Right ascension
Unknown
Apparent Declination
Unknown
Sunlit
N/A
Visualization observer readout
Local Sidereal Time
17:16:41
Azimuth
Unknown
Elevation
Unknown
Doppler factor
Unknown
Orbital elements
Apogee altitude
36,084.488 km
Perigee altitude
26,260.161 km
Semi-major axis
37,550.462 km
Eccentricity
0.13082
Inclination
2.7366°
RAAN
87.1676°
Arg. of periapsis
100.5763°
True anomaly
177.56038°
Mean anomaly
176.8536°
Eccentric anomaly
177.21746°
Mean motion
0.29828 °/min
Orbital period
1,206.93 mins
BSTAR
0
Loading maneuver chart data...
Computing Atmospheric mass density...
Loading historical data...
Loading historical data...
Loading historical data...
Loading historical data...
Loading historical data...
Loading historical data...
Loading historical data...
Other satellites on launch #27 in the year 2018 (2018-03-29 UTC)

Documentation

Showing up to 5 results
|